Location: Melbourne
(37.8170°S, 144.9670°E)
Time: 23:19:13
(UTC+10:00)

ISS - All Passes

Search period start: 05 July 2015 00:00
Search period end: 15 July 2015 00:00
Orbit: 398 x 403 km, 51.6° (Epoch: 04 July)

Date Brightness Start Highest point End Pass type
(mag) Time Alt. Az. Time Alt. Az. Time Alt. Az.
05 Jul - 01:58:57 10° SW 02:02:01 33° SSE 02:05:05 10° E night (unlit)
05 Jul - 03:35:34 10° WSW 03:38:20 24° NW 03:41:01 10° N night (unlit)
05 Jul - 18:36:55 10° N 18:39:36 24° NE 18:42:22 10° ESE visible
05 Jul - 20:12:54 10° W 20:15:56 32° SSW 20:18:59 10° SE visible
06 Jul - 01:05:45 10° SSW 01:08:20 20° SSE 01:10:55 10° ESE night (unlit)
06 Jul - 02:41:41 10° WSW 02:44:56 50° NW 02:48:08 10° NNE night (unlit)
06 Jul - 17:45:05 10° NNE 17:46:16 12° NE 17:47:35 10° ENE visible
06 Jul - 19:19:03 10° WNW 19:22:19 62° SW 19:25:38 10° SE visible
06 Jul - 20:57:37 10° SW 20:59:18 13° SSW 21:00:56 10° S night (unlit)
07 Jul - 00:12:40 10° SSW 00:14:32 14° SSE 00:16:27 10° SE night (unlit)
07 Jul - 01:48:06 10° SW 01:51:27 75° SE 01:54:45 10° NE night (unlit)
07 Jul - 18:25:34 10° NW 18:28:48 61° NE 18:32:05 10° ESE visible
07 Jul - 20:03:02 10° WSW 20:05:28 19° SSW 20:07:54 10° SSE visible
07 Jul - 23:19:57 10° S 23:20:40 11° SSE 23:21:25 10° SSE night (unlit)
08 Jul - 00:54:42 10° SW 00:57:51 37° SSE 01:00:58 10° ENE night (unlit)
08 Jul - 02:31:32 10° W 02:34:05 20° NW 02:36:34 10° N night (unlit)
08 Jul - 17:32:31 10° NNW 17:35:21 28° NE 17:38:16 10° ESE daylight
08 Jul - 19:08:47 10° W 19:11:44 29° SSW 19:14:41 10° SSE visible
09 Jul - 00:01:26 10° SSW 00:04:08 22° SSE 00:06:51 10° E night (unlit)
09 Jul - 01:37:30 10° WSW 01:40:40 42° NW 01:43:48 10° NNE night (unlit)
09 Jul - 16:40:16 10° NNE 16:41:58 14° NE 16:43:46 10° E daylight
09 Jul - 18:14:50 10° WNW 18:18:04 53° SW 18:21:20 10° SE visible
09 Jul - 19:53:38 10° SW 19:55:06 12° SSW 19:56:31 10° S visible
09 Jul - 23:08:17 10° SSW 23:10:19 15° SSE 23:12:23 10° ESE night (unlit)
10 Jul - 00:43:50 10° SW 00:47:10 87° SSE 00:50:28 10° NE night (unlit)
10 Jul - 17:21:13 10° NW 17:24:29 73° NE 17:27:48 10° SE daylight
10 Jul - 18:58:56 10° WSW 19:01:13 17° SSW 19:03:30 10° SSE visible
10 Jul - 22:15:24 10° S 22:16:25 11° SSE 22:17:30 10° SE night (unlit)
10 Jul - 23:50:21 10° SW 23:53:33 42° SE 23:56:43 10° ENE night (unlit)
11 Jul - 01:27:24 10° W 01:29:44 17° NW 01:31:59 10° N night (unlit)
11 Jul - 16:28:01 10° NNW 16:30:59 32° NE 16:34:01 10° ESE daylight
11 Jul - 18:04:33 10° W 18:07:25 26° SSW 18:10:17 10° SSE visible
11 Jul - 22:57:01 10° SSW 22:59:49 25° SSE 23:02:38 10° E night (unlit)
12 Jul - 00:33:12 10° WSW 00:36:18 36° NW 00:39:21 10° NNE night (unlit)
12 Jul - 15:35:30 10° N 15:37:32 16° NE 15:39:41 10° E daylight
12 Jul - 17:10:30 10° WNW 17:13:42 46° SW 17:16:55 10° SE daylight
12 Jul - 18:49:33 10° SW 18:50:47 11° SSW 18:51:58 10° S visible
12 Jul - 22:03:48 10° SSW 22:05:59 16° SSE 22:08:13 10° ESE night (unlit)
12 Jul - 23:39:26 10° SW 23:42:46 80° NW 23:46:04 10° NE night (unlit)
13 Jul - 16:16:47 10° NW 16:20:04 85° NE 16:23:23 10° SE daylight
13 Jul - 17:54:42 10° WSW 17:56:51 16° SSW 17:58:59 10° SSE visible
13 Jul - 21:10:47 10° S 21:12:04 12° SSE 21:13:24 10° SE night (unlit)
13 Jul - 22:45:53 10° SW 22:49:08 49° SE 22:52:21 10° ENE night (unlit)
14 Jul - 00:23:13 10° W 00:25:16 15° NW 00:27:12 10° NNW night (unlit)
14 Jul - 15:23:27 10° NNW 15:26:30 38° NE 15:29:38 10° ESE daylight
14 Jul - 17:00:14 10° W 17:03:00 24° SSW 17:05:45 10° SSE daylight
14 Jul - 21:52:29 10° SSW 21:55:23 27° SSE 21:58:18 10° E night (unlit)
14 Jul - 23:28:49 10° WSW 23:31:48 31° NW 23:34:44 10° NNE night (unlit)
